Year,Month,Day,Hour,Minute,Value (Times are PST for temperature in C)
2014,12,06,00,00,4.30
2014,12,06,00,01,4.40
2014,12,06,00,02,4.30
2014,12,06,00,03,4.30
2014,12,06,00,04,4.30
2014,12,06,00,05,4.40
2014,12,06,00,06,4.40
2014,12,06,00,07,4.40
2014,12,06,00,08,4.40
2014,12,06,00,09,4.40
2014,12,06,00,10,4.40
2014,12,06,00,11,4.40
2014,12,06,00,12,4.40
2014,12,06,00,13,4.40
2014,12,06,00,14,4.40
2014,12,06,00,15,4.40
2014,12,06,00,16,4.40
2014,12,06,00,17,4.40
2014,12,06,00,18,4.40
2014,12,06,00,19,4.40
2014,12,06,00,20,4.40
2014,12,06,00,21,4.50
2014,12,06,00,22,4.50
2014,12,06,00,23,4.50
2014,12,06,00,24,4.50
2014,12,06,00,25,4.50
2014,12,06,00,26,4.50
2014,12,06,00,27,4.50
2014,12,06,00,28,4.50
2014,12,06,00,29,4.50
2014,12,06,00,30,4.50
2014,12,06,00,31,4.60
2014,12,06,00,32,4.60
2014,12,06,00,33,4.60
2014,12,06,00,34,4.60
2014,12,06,00,35,4.60
2014,12,06,00,36,4.60
2014,12,06,00,37,4.60
2014,12,06,00,38,4.60
2014,12,06,00,39,4.60
2014,12,06,00,40,4.60
2014,12,06,00,41,4.60
2014,12,06,00,42,4.60
2014,12,06,00,43,4.60
2014,12,06,00,44,4.60
2014,12,06,00,45,4.60
2014,12,06,00,46,4.60
2014,12,06,00,47,4.60
2014,12,06,00,48,4.60
2014,12,06,00,49,4.60
2014,12,06,00,50,4.60
2014,12,06,00,51,4.60
2014,12,06,00,52,4.60
2014,12,06,00,53,4.60
2014,12,06,00,54,4.70
2014,12,06,00,55,4.70
2014,12,06,00,56,4.70
2014,12,06,00,57,4.70
2014,12,06,00,58,4.70
2014,12,06,00,59,4.70
2014,12,06,01,00,4.70
2014,12,06,01,01,4.70
2014,12,06,01,02,4.70
2014,12,06,01,03,4.70
2014,12,06,01,04,4.80
2014,12,06,01,05,4.80
2014,12,06,01,06,4.80
2014,12,06,01,07,4.80
2014,12,06,01,08,4.80
2014,12,06,01,09,4.80
2014,12,06,01,10,4.80
2014,12,06,01,11,4.80
2014,12,06,01,12,4.90
2014,12,06,01,13,4.90
2014,12,06,01,14,4.90
2014,12,06,01,15,4.90
2014,12,06,01,16,4.90
2014,12,06,01,17,4.90
2014,12,06,01,18,4.90
2014,12,06,01,19,4.90
2014,12,06,01,20,4.80
2014,12,06,01,21,4.80
2014,12,06,01,22,4.80
2014,12,06,01,23,4.80
2014,12,06,01,24,4.80
2014,12,06,01,25,4.80
2014,12,06,01,26,4.80
2014,12,06,01,27,4.70
2014,12,06,01,28,4.80
2014,12,06,01,29,4.70
2014,12,06,01,30,4.70
2014,12,06,01,31,4.70
2014,12,06,01,32,4.70
2014,12,06,01,33,4.70
2014,12,06,01,34,4.80
2014,12,06,01,35,4.80
2014,12,06,01,36,4.80
2014,12,06,01,37,4.80
2014,12,06,01,38,4.80
2014,12,06,01,39,4.80
2014,12,06,01,40,4.80
2014,12,06,01,41,4.80
2014,12,06,01,42,4.80
2014,12,06,01,43,4.80
2014,12,06,01,44,4.70
2014,12,06,01,45,4.70
2014,12,06,01,46,4.70
2014,12,06,01,47,4.70
2014,12,06,01,48,4.70
2014,12,06,01,49,4.80
2014,12,06,01,50,4.70
2014,12,06,01,51,4.70
2014,12,06,01,52,4.70
2014,12,06,01,53,4.70
2014,12,06,01,54,4.70
2014,12,06,01,55,4.80
2014,12,06,01,56,4.80
2014,12,06,01,57,4.80
2014,12,06,01,58,4.80
2014,12,06,01,59,4.80
2014,12,06,02,00,4.80
2014,12,06,02,01,4.80
2014,12,06,02,02,4.80
2014,12,06,02,03,4.80
2014,12,06,02,04,4.80
2014,12,06,02,05,4.80
2014,12,06,02,06,4.80
2014,12,06,02,07,4.80
2014,12,06,02,08,4.70
2014,12,06,02,09,4.70
2014,12,06,02,10,4.70
2014,12,06,02,11,4.70
2014,12,06,02,12,4.70
2014,12,06,02,13,4.80
2014,12,06,02,14,4.80
2014,12,06,02,15,4.80
2014,12,06,02,16,4.80
2014,12,06,02,17,4.80
2014,12,06,02,18,4.80
2014,12,06,02,19,4.80
2014,12,06,02,20,4.80
2014,12,06,02,21,4.80
2014,12,06,02,22,4.80
2014,12,06,02,23,4.90
2014,12,06,02,24,4.90
2014,12,06,02,25,5.00
2014,12,06,02,26,5.00
2014,12,06,02,27,5.00
2014,12,06,02,28,5.00
2014,12,06,02,29,5.00
2014,12,06,02,30,5.00
2014,12,06,02,31,5.00
2014,12,06,02,32,4.90
2014,12,06,02,33,4.90
2014,12,06,02,34,4.90
2014,12,06,02,35,4.90
2014,12,06,02,36,4.90
2014,12,06,02,37,4.90
2014,12,06,02,38,4.90
2014,12,06,02,39,5.00
2014,12,06,02,40,5.00
2014,12,06,02,41,5.00
2014,12,06,02,42,5.00
2014,12,06,02,43,5.10
2014,12,06,02,44,5.10
2014,12,06,02,45,5.10
2014,12,06,02,46,5.10
2014,12,06,02,47,5.10
2014,12,06,02,48,5.10
2014,12,06,02,49,5.10
2014,12,06,02,50,5.10
2014,12,06,02,51,5.10
2014,12,06,02,52,5.10
2014,12,06,02,53,5.20
2014,12,06,02,54,5.10
2014,12,06,02,55,5.10
2014,12,06,02,56,5.20
2014,12,06,02,57,5.20
2014,12,06,02,58,5.10
2014,12,06,02,59,5.10
2014,12,06,03,00,5.10
2014,12,06,03,01,5.10
2014,12,06,03,02,5.10
2014,12,06,03,03,5.00
2014,12,06,03,04,5.00
2014,12,06,03,05,5.00
2014,12,06,03,06,5.00
2014,12,06,03,07,5.00
2014,12,06,03,08,4.90
2014,12,06,03,09,4.90
2014,12,06,03,10,4.90
2014,12,06,03,11,4.90
2014,12,06,03,12,4.90
2014,12,06,03,13,4.90
2014,12,06,03,14,4.90
2014,12,06,03,15,4.90
2014,12,06,03,16,4.90
2014,12,06,03,17,4.90
2014,12,06,03,18,4.90
2014,12,06,03,19,4.90
2014,12,06,03,20,4.90
2014,12,06,03,21,4.90
2014,12,06,03,22,4.90
2014,12,06,03,23,4.90
2014,12,06,03,24,4.90
2014,12,06,03,25,4.90
2014,12,06,03,26,4.90
2014,12,06,03,27,4.90
2014,12,06,03,28,5.00
2014,12,06,03,29,5.00
2014,12,06,03,30,5.00
2014,12,06,03,31,5.00
2014,12,06,03,32,5.00
2014,12,06,03,33,5.00
2014,12,06,03,34,5.00
2014,12,06,03,35,5.00
2014,12,06,03,36,5.00
2014,12,06,03,37,5.00
2014,12,06,03,38,5.00
2014,12,06,03,39,5.00
2014,12,06,03,40,5.00
2014,12,06,03,41,5.00
2014,12,06,03,42,5.00
2014,12,06,03,43,5.00
2014,12,06,03,44,5.00
2014,12,06,03,45,5.00
2014,12,06,03,46,5.00
2014,12,06,03,47,5.10
2014,12,06,03,48,5.10
2014,12,06,03,49,5.10
2014,12,06,03,50,5.10
2014,12,06,03,51,5.10
2014,12,06,03,52,5.10
2014,12,06,03,53,5.10
2014,12,06,03,54,5.00
2014,12,06,03,55,5.10
2014,12,06,03,56,5.10
2014,12,06,03,57,5.00
2014,12,06,03,58,5.00
2014,12,06,03,59,5.00
2014,12,06,04,00,5.10
2014,12,06,04,01,5.10
2014,12,06,04,02,5.10
2014,12,06,05,02,5.00
2014,12,06,05,03,5.00
2014,12,06,05,04,5.00
2014,12,06,05,05,5.00
2014,12,06,05,06,5.00
2014,12,06,05,07,5.00
2014,12,06,05,08,5.10
2014,12,06,05,09,5.00
2014,12,06,05,10,5.00
2014,12,06,05,11,5.00
2014,12,06,05,12,5.10
2014,12,06,05,13,5.10
2014,12,06,05,14,5.10
2014,12,06,05,15,5.00
2014,12,06,05,16,5.10
2014,12,06,05,17,5.00
2014,12,06,05,18,5.10
2014,12,06,05,19,5.10
2014,12,06,05,20,5.10
2014,12,06,05,21,5.10
2014,12,06,05,22,5.10
2014,12,06,05,23,5.10
2014,12,06,05,24,5.10
2014,12,06,05,25,5.10
2014,12,06,05,26,5.10
2014,12,06,05,27,5.10
2014,12,06,05,28,5.10
2014,12,06,05,29,5.10
2014,12,06,05,30,5.10
2014,12,06,05,31,5.10
2014,12,06,05,32,5.10
2014,12,06,05,33,5.10
2014,12,06,05,34,5.10
2014,12,06,05,35,5.10
2014,12,06,05,36,5.10
2014,12,06,05,37,5.10
2014,12,06,05,38,5.10
2014,12,06,05,39,5.10
2014,12,06,05,40,5.10
2014,12,06,05,41,5.10
2014,12,06,05,42,5.10
2014,12,06,05,43,5.10
2014,12,06,05,44,5.10
2014,12,06,05,45,5.10
2014,12,06,05,46,5.10
2014,12,06,05,47,5.10
2014,12,06,05,48,5.10
2014,12,06,05,49,5.10
2014,12,06,05,50,5.10
2014,12,06,05,51,5.10
2014,12,06,05,52,5.10
2014,12,06,05,53,5.10
2014,12,06,05,54,5.10
2014,12,06,05,55,5.10
2014,12,06,05,56,5.10
2014,12,06,05,57,5.10
2014,12,06,05,58,5.10
2014,12,06,05,59,5.10
2014,12,06,06,00,5.10
2014,12,06,06,01,5.10
2014,12,06,06,02,5.10
2014,12,06,06,03,5.10
2014,12,06,06,04,5.10
2014,12,06,06,05,5.10
2014,12,06,06,06,5.10
2014,12,06,06,07,5.10
2014,12,06,06,08,5.10
2014,12,06,06,09,5.10
2014,12,06,06,10,5.10
2014,12,06,06,11,5.20
2014,12,06,06,12,5.20
2014,12,06,06,13,5.20
2014,12,06,06,14,5.20
2014,12,06,06,15,5.20
2014,12,06,06,16,5.20
2014,12,06,06,17,5.20
2014,12,06,06,18,5.20
2014,12,06,06,19,5.10
2014,12,06,06,20,5.10
2014,12,06,06,21,5.10
2014,12,06,06,22,5.10
2014,12,06,06,23,5.10
2014,12,06,06,24,5.20
2014,12,06,06,25,5.20
2014,12,06,06,26,5.20
2014,12,06,06,27,5.20
2014,12,06,06,28,5.10
2014,12,06,06,29,5.20
2014,12,06,06,30,5.10
2014,12,06,06,31,5.10
2014,12,06,06,32,5.10
2014,12,06,06,33,5.10
2014,12,06,06,34,5.10
2014,12,06,06,35,5.10
2014,12,06,06,36,5.10
2014,12,06,06,37,5.10
2014,12,06,06,38,5.10
2014,12,06,06,39,5.10
2014,12,06,06,40,5.20
2014,12,06,06,41,5.10
2014,12,06,06,42,5.20
2014,12,06,06,43,5.20
2014,12,06,06,44,5.20
2014,12,06,06,45,5.20
2014,12,06,06,46,5.20
2014,12,06,06,47,5.10
2014,12,06,06,48,5.10
2014,12,06,06,49,5.10
2014,12,06,06,50,5.10
2014,12,06,06,51,5.10
2014,12,06,06,52,5.10
2014,12,06,06,53,5.10
2014,12,06,06,54,5.10
2014,12,06,06,55,5.10
2014,12,06,06,56,5.10
2014,12,06,06,57,5.10
2014,12,06,06,58,5.10
2014,12,06,06,59,5.20
2014,12,06,07,00,5.20
2014,12,06,07,01,5.20
2014,12,06,07,02,5.20
2014,12,06,07,03,5.20
2014,12,06,07,04,5.20
2014,12,06,07,05,5.20
2014,12,06,07,06,5.20
2014,12,06,07,07,5.20
2014,12,06,07,08,5.20
2014,12,06,07,09,5.20
2014,12,06,07,10,5.20
2014,12,06,07,11,5.20
2014,12,06,07,12,5.20
2014,12,06,07,13,5.20
2014,12,06,07,14,5.20
2014,12,06,07,15,5.20
2014,12,06,07,16,5.20
2014,12,06,07,17,5.20
2014,12,06,07,18,5.20
2014,12,06,07,19,5.20
2014,12,06,07,20,5.30
2014,12,06,07,21,5.30
2014,12,06,07,22,5.30
2014,12,06,07,23,5.30
2014,12,06,07,24,5.30
2014,12,06,07,25,5.40
2014,12,06,07,26,5.40
2014,12,06,07,27,5.40
2014,12,06,07,28,5.40
2014,12,06,07,29,5.40
2014,12,06,07,30,5.40
2014,12,06,07,31,5.40
2014,12,06,07,32,5.40
2014,12,06,07,33,5.40
2014,12,06,07,34,5.40
2014,12,06,07,35,5.40
2014,12,06,07,36,5.40
2014,12,06,07,37,5.40
2014,12,06,07,38,5.40
2014,12,06,07,39,5.40
2014,12,06,07,40,5.40
2014,12,06,07,41,5.40
2014,12,06,07,42,5.40
2014,12,06,07,43,5.30
2014,12,06,07,44,5.30
2014,12,06,07,45,5.30
2014,12,06,07,46,5.30
2014,12,06,07,47,5.30
2014,12,06,07,48,5.20
2014,12,06,07,49,5.20
2014,12,06,07,50,5.20
2014,12,06,07,51,5.20
2014,12,06,07,52,5.30
2014,12,06,07,53,5.30
2014,12,06,07,54,5.30
2014,12,06,07,55,5.30
2014,12,06,07,56,5.30
2014,12,06,07,57,5.30
2014,12,06,07,58,5.30
2014,12,06,07,59,5.30
2014,12,06,08,00,5.30
2014,12,06,08,01,5.30
2014,12,06,08,02,5.30
2014,12,06,08,03,5.30
2014,12,06,08,04,5.30
2014,12,06,08,05,5.30
2014,12,06,08,06,5.30
2014,12,06,08,07,5.30
2014,12,06,08,08,5.30
2014,12,06,08,09,5.30
2014,12,06,08,10,5.30
2014,12,06,08,11,5.30
2014,12,06,08,12,5.40
2014,12,06,08,13,5.40
2014,12,06,08,14,5.40
2014,12,06,08,15,5.40
2014,12,06,08,16,5.40
2014,12,06,08,17,5.40
2014,12,06,08,18,5.40
2014,12,06,08,19,5.40
2014,12,06,08,20,5.40
2014,12,06,08,21,5.50
2014,12,06,08,22,5.50
2014,12,06,08,23,5.50
2014,12,06,08,24,5.50
2014,12,06,08,25,5.60
2014,12,06,08,26,5.60
2014,12,06,08,27,5.60
2014,12,06,08,28,5.60
2014,12,06,08,29,5.60
2014,12,06,08,30,5.60
2014,12,06,08,31,5.60
2014,12,06,08,32,5.70
2014,12,06,08,33,5.70
2014,12,06,08,34,5.70
2014,12,06,08,35,5.70
2014,12,06,08,36,5.70
2014,12,06,08,37,5.70
2014,12,06,08,38,5.70
2014,12,06,08,39,5.70
2014,12,06,08,40,5.70
2014,12,06,08,41,5.70
2014,12,06,08,42,5.70
2014,12,06,08,43,5.70
2014,12,06,08,44,5.70
2014,12,06,08,45,5.80
2014,12,06,08,46,5.80
2014,12,06,08,47,5.80
2014,12,06,08,48,5.80
2014,12,06,08,49,5.80
2014,12,06,08,50,5.80
2014,12,06,08,51,5.80
2014,12,06,08,52,5.80
2014,12,06,08,53,5.80
2014,12,06,08,54,5.80
2014,12,06,08,55,5.80
2014,12,06,08,56,5.80
2014,12,06,08,57,5.80
2014,12,06,08,58,5.80
2014,12,06,08,59,5.80
2014,12,06,09,00,5.80
2014,12,06,09,01,5.80
2014,12,06,09,02,5.80
2014,12,06,09,03,5.80
2014,12,06,09,04,5.80
2014,12,06,09,05,5.80
2014,12,06,09,06,5.80
2014,12,06,09,07,5.80
2014,12,06,09,08,5.70
2014,12,06,09,09,5.70
2014,12,06,09,10,5.70
2014,12,06,09,11,5.70
2014,12,06,09,12,5.70
2014,12,06,09,13,5.70
2014,12,06,09,14,5.70
2014,12,06,09,15,5.70
2014,12,06,09,16,5.70
2014,12,06,09,17,5.70
2014,12,06,09,18,5.70
2014,12,06,09,19,5.70
2014,12,06,09,20,5.70
2014,12,06,09,21,5.70
2014,12,06,09,22,5.70
2014,12,06,09,23,5.70
2014,12,06,09,24,5.70
2014,12,06,09,25,5.70
2014,12,06,09,26,5.70
2014,12,06,09,27,5.70
2014,12,06,09,28,5.60
2014,12,06,09,29,5.60
2014,12,06,09,30,5.60
2014,12,06,09,31,5.60
2014,12,06,09,32,5.60
2014,12,06,09,33,5.70
2014,12,06,09,34,5.70
2014,12,06,09,35,5.70
2014,12,06,09,36,5.70
2014,12,06,09,37,5.70
2014,12,06,09,38,5.70
2014,12,06,09,39,5.70
2014,12,06,09,40,5.70
2014,12,06,09,41,5.70
2014,12,06,09,42,5.70
2014,12,06,09,43,5.70
2014,12,06,09,44,5.70
2014,12,06,09,45,5.70
2014,12,06,09,46,5.70
2014,12,06,09,47,5.70
2014,12,06,09,48,5.70
2014,12,06,09,49,5.70
2014,12,06,09,50,5.70
2014,12,06,09,51,5.70
2014,12,06,09,52,5.70
2014,12,06,09,53,5.70
2014,12,06,09,54,5.70
2014,12,06,09,55,5.70
2014,12,06,09,56,5.70
2014,12,06,09,57,5.70
2014,12,06,09,58,5.70
2014,12,06,09,59,5.70
2014,12,06,10,00,5.70
2014,12,06,10,01,5.70
2014,12,06,10,02,5.70
2014,12,06,10,03,5.70
2014,12,06,10,04,5.70
2014,12,06,10,05,5.70
2014,12,06,10,06,5.70
2014,12,06,10,07,5.70
2014,12,06,10,08,5.70
2014,12,06,10,09,5.70
2014,12,06,10,10,5.70
2014,12,06,10,11,5.70
2014,12,06,10,12,5.70
2014,12,06,10,13,5.80
2014,12,06,10,14,5.80
2014,12,06,10,15,5.80
2014,12,06,10,16,5.80
2014,12,06,10,17,5.80
2014,12,06,10,18,5.80
2014,12,06,10,19,5.80
2014,12,06,10,20,5.80
2014,12,06,10,21,5.80
2014,12,06,10,22,5.80
2014,12,06,10,23,5.80
2014,12,06,10,24,5.80
2014,12,06,10,25,5.80
2014,12,06,10,26,5.80
2014,12,06,10,27,5.80
2014,12,06,10,28,5.80
2014,12,06,10,29,5.80
2014,12,06,10,30,5.80
2014,12,06,10,31,5.80
2014,12,06,10,32,5.90
2014,12,06,10,33,5.90
2014,12,06,10,34,5.90
2014,12,06,10,35,5.90
2014,12,06,10,36,5.90
2014,12,06,10,37,5.90
2014,12,06,10,38,5.90
2014,12,06,10,39,5.90
2014,12,06,10,40,5.90
2014,12,06,10,41,6.00
2014,12,06,10,42,6.00
2014,12,06,10,43,6.00
2014,12,06,10,44,6.00
2014,12,06,10,45,6.00
2014,12,06,10,46,6.00
2014,12,06,10,47,6.00
2014,12,06,10,48,6.00
2014,12,06,10,49,6.00
2014,12,06,10,50,6.00
2014,12,06,10,51,6.00
2014,12,06,10,52,6.00
2014,12,06,10,53,6.00
2014,12,06,10,54,6.00
2014,12,06,10,55,6.00
2014,12,06,10,56,6.00
2014,12,06,10,57,6.00
2014,12,06,10,58,6.00
2014,12,06,10,59,6.00
2014,12,06,11,00,6.00
2014,12,06,11,01,6.00
2014,12,06,11,02,6.00
2014,12,06,11,03,6.00
2014,12,06,11,04,6.10
2014,12,06,11,05,6.10
2014,12,06,11,06,6.10
2014,12,06,11,07,6.10
2014,12,06,11,08,6.10
2014,12,06,11,09,6.10
2014,12,06,11,10,6.10
2014,12,06,11,11,6.10
2014,12,06,11,12,6.10
2014,12,06,11,13,6.10
2014,12,06,11,14,6.10
2014,12,06,11,15,6.20
2014,12,06,11,16,6.20
2014,12,06,11,17,6.20
2014,12,06,11,18,6.20
2014,12,06,11,19,6.20
2014,12,06,11,20,6.20
2014,12,06,11,21,6.20
2014,12,06,11,22,6.20
2014,12,06,11,23,6.20
2014,12,06,11,24,6.20
2014,12,06,11,25,6.20
2014,12,06,11,26,6.20
2014,12,06,11,27,6.20
2014,12,06,11,28,6.20
2014,12,06,11,29,6.20
2014,12,06,11,30,6.30
2014,12,06,11,31,6.30
2014,12,06,11,32,6.30
2014,12,06,11,33,6.30
2014,12,06,11,34,6.30
2014,12,06,11,35,6.30
2014,12,06,11,36,6.30
2014,12,06,11,37,6.30
2014,12,06,11,38,6.30
2014,12,06,11,39,6.30
2014,12,06,11,40,6.30
2014,12,06,11,41,6.30
2014,12,06,11,42,6.30
2014,12,06,11,43,6.30
2014,12,06,11,44,6.30
2014,12,06,11,45,6.30
2014,12,06,11,46,6.30
2014,12,06,11,47,6.30
2014,12,06,11,48,6.30
2014,12,06,11,49,6.40
2014,12,06,11,50,6.40
2014,12,06,11,51,6.40
2014,12,06,11,52,6.40
2014,12,06,11,53,6.40
2014,12,06,11,54,6.40
2014,12,06,11,55,6.40
2014,12,06,11,56,6.40
2014,12,06,11,57,6.40
2014,12,06,11,58,6.40
2014,12,06,11,59,6.40
2014,12,06,12,00,6.40
2014,12,06,12,01,6.40
2014,12,06,12,02,6.40
2014,12,06,12,03,6.40
2014,12,06,12,04,6.40
2014,12,06,12,05,6.40
2014,12,06,12,06,6.40
2014,12,06,12,07,6.40
2014,12,06,12,08,6.40
2014,12,06,12,09,6.40
2014,12,06,12,10,6.40
2014,12,06,12,11,6.40
2014,12,06,12,12,6.40
2014,12,06,12,13,6.40
2014,12,06,12,14,6.40
2014,12,06,12,15,6.40
2014,12,06,12,16,6.40
2014,12,06,12,17,6.40
2014,12,06,12,18,6.50
2014,12,06,12,19,6.50
2014,12,06,12,20,6.50
2014,12,06,12,21,6.50
2014,12,06,12,22,6.50
2014,12,06,12,23,6.50
2014,12,06,12,24,6.50
2014,12,06,12,25,6.50
2014,12,06,12,26,6.50
2014,12,06,12,27,6.50
2014,12,06,12,28,6.50
2014,12,06,12,29,6.50
2014,12,06,12,30,6.50
2014,12,06,12,31,6.50
2014,12,06,12,32,6.60
2014,12,06,12,33,6.60
2014,12,06,12,34,6.60
2014,12,06,12,35,6.60
2014,12,06,12,36,6.60
2014,12,06,12,37,6.60
2014,12,06,12,38,6.60
2014,12,06,12,39,6.60
2014,12,06,12,40,6.60
2014,12,06,12,41,6.60
2014,12,06,12,42,6.60
2014,12,06,12,43,6.60
2014,12,06,12,44,6.60
2014,12,06,12,45,6.60
2014,12,06,12,46,6.60
2014,12,06,12,47,6.60
2014,12,06,12,48,6.60
2014,12,06,12,49,6.60
2014,12,06,12,50,6.60
2014,12,06,12,51,6.60
2014,12,06,12,52,6.60
2014,12,06,12,53,6.60
2014,12,06,12,54,6.60
2014,12,06,12,55,6.60
2014,12,06,12,56,6.60
2014,12,06,12,57,6.70
2014,12,06,12,58,6.70
2014,12,06,12,59,6.70
2014,12,06,13,00,6.70
2014,12,06,13,01,6.70
2014,12,06,13,02,6.70
2014,12,06,13,03,6.70
2014,12,06,13,04,6.70
2014,12,06,13,05,6.70
2014,12,06,13,06,6.70
2014,12,06,13,07,6.70
2014,12,06,13,08,6.70
2014,12,06,13,09,6.70
2014,12,06,13,10,6.70
2014,12,06,13,11,6.70
2014,12,06,13,12,6.70
2014,12,06,13,13,6.70
2014,12,06,13,14,6.70
2014,12,06,13,15,6.80
2014,12,06,13,16,6.80
2014,12,06,13,17,6.80
2014,12,06,13,18,6.80
2014,12,06,13,19,6.80
2014,12,06,13,20,6.80
2014,12,06,13,21,6.80
2014,12,06,13,22,6.80
2014,12,06,13,23,6.90
2014,12,06,13,24,6.90
2014,12,06,13,25,6.90
2014,12,06,13,26,6.90
2014,12,06,13,27,6.90
2014,12,06,13,28,6.90
2014,12,06,13,29,6.90
2014,12,06,13,30,6.90
2014,12,06,13,31,6.90
2014,12,06,13,32,6.90
2014,12,06,13,33,6.90
2014,12,06,13,34,6.90
2014,12,06,13,35,6.90
2014,12,06,13,36,6.90
2014,12,06,13,37,6.90
2014,12,06,13,38,6.90
2014,12,06,13,39,6.90
2014,12,06,13,40,6.90
2014,12,06,13,41,6.90
2014,12,06,13,42,6.90
2014,12,06,13,43,6.90
2014,12,06,13,44,6.90
2014,12,06,13,45,6.90
2014,12,06,13,46,6.90
2014,12,06,13,47,6.90
2014,12,06,13,48,6.90
2014,12,06,13,49,6.90
2014,12,06,13,50,6.90
2014,12,06,13,51,6.90
2014,12,06,13,52,6.90
2014,12,06,13,53,6.90
2014,12,06,13,54,7.00
2014,12,06,13,55,7.00
2014,12,06,13,56,7.00
2014,12,06,13,57,7.00
2014,12,06,13,58,7.00
2014,12,06,13,59,7.00
2014,12,06,14,00,7.00
2014,12,06,14,01,7.00
2014,12,06,14,02,7.10
2014,12,06,14,03,7.10
2014,12,06,14,04,7.10
2014,12,06,14,05,7.10
2014,12,06,14,06,7.10
2014,12,06,14,07,7.10
2014,12,06,14,08,7.10
2014,12,06,14,09,7.10
2014,12,06,14,10,7.20
2014,12,06,14,11,7.20
2014,12,06,14,12,7.20
2014,12,06,14,13,7.20
2014,12,06,14,14,7.20
2014,12,06,14,15,7.20
2014,12,06,14,16,7.20
2014,12,06,14,17,7.20
2014,12,06,14,18,7.20
2014,12,06,14,19,7.20
2014,12,06,14,20,7.20
2014,12,06,14,21,7.20
2014,12,06,14,22,7.20
2014,12,06,14,23,7.30
2014,12,06,14,24,7.30
2014,12,06,14,25,7.20
2014,12,06,14,26,7.20
2014,12,06,14,27,7.20
2014,12,06,14,28,7.20
2014,12,06,14,29,7.20
2014,12,06,14,30,7.20
2014,12,06,14,31,7.20
2014,12,06,14,32,7.20
2014,12,06,14,33,7.20
2014,12,06,14,34,7.20
2014,12,06,14,35,7.20
2014,12,06,14,36,7.20
2014,12,06,14,37,7.20
2014,12,06,14,38,7.20
2014,12,06,14,39,7.20
2014,12,06,14,40,7.20
2014,12,06,14,41,7.20
2014,12,06,14,42,7.20
2014,12,06,14,43,7.20
2014,12,06,14,44,7.20
2014,12,06,14,45,7.20
2014,12,06,14,46,7.20
2014,12,06,14,47,7.20
2014,12,06,14,48,7.20
2014,12,06,14,49,7.20
2014,12,06,14,50,7.20
2014,12,06,14,51,7.20
2014,12,06,14,52,7.20
2014,12,06,14,53,7.30
2014,12,06,14,54,7.30
2014,12,06,14,55,7.30
2014,12,06,14,56,7.30
2014,12,06,14,57,7.30
2014,12,06,14,58,7.30
2014,12,06,14,59,7.20
2014,12,06,15,00,7.20
2014,12,06,15,01,7.20
2014,12,06,15,02,7.20
2014,12,06,15,03,7.20
2014,12,06,15,04,7.20
2014,12,06,15,05,7.20
2014,12,06,15,06,7.20
2014,12,06,15,07,7.20
2014,12,06,15,08,7.20
2014,12,06,15,09,7.20
2014,12,06,15,10,7.20
2014,12,06,15,11,7.20
2014,12,06,15,12,7.20
2014,12,06,15,13,7.20
2014,12,06,15,14,7.20
2014,12,06,15,15,7.20
2014,12,06,15,16,7.20
2014,12,06,15,17,7.20
2014,12,06,15,18,7.20
2014,12,06,15,19,7.20
2014,12,06,15,20,7.20
2014,12,06,15,21,7.20
2014,12,06,15,22,7.20
2014,12,06,15,23,7.20
2014,12,06,15,24,7.20
2014,12,06,15,25,7.20
2014,12,06,15,26,7.10
2014,12,06,15,27,7.10
2014,12,06,15,28,7.10
2014,12,06,15,29,7.10
2014,12,06,15,30,7.10
2014,12,06,15,31,7.10
2014,12,06,15,32,7.10
2014,12,06,15,33,7.10
2014,12,06,15,34,7.10
2014,12,06,15,35,7.10
2014,12,06,15,36,7.10
2014,12,06,15,37,7.10
2014,12,06,15,38,7.10
2014,12,06,15,39,7.10
2014,12,06,15,40,7.10
2014,12,06,15,41,7.10
2014,12,06,15,42,7.10
2014,12,06,15,43,7.10
2014,12,06,15,44,7.10
2014,12,06,15,45,7.10
2014,12,06,15,46,7.10
2014,12,06,15,47,7.10
2014,12,06,15,48,7.10
2014,12,06,15,49,7.10
2014,12,06,15,50,7.10
2014,12,06,15,51,7.10
2014,12,06,15,52,7.10
2014,12,06,15,53,7.00
2014,12,06,15,54,7.00
2014,12,06,15,55,7.00
2014,12,06,15,56,7.00
2014,12,06,15,57,7.00
2014,12,06,15,58,7.00
2014,12,06,15,59,7.00
2014,12,06,16,00,7.00
2014,12,06,16,01,7.00
2014,12,06,16,02,7.00
2014,12,06,16,03,7.00
2014,12,06,16,04,7.00
2014,12,06,16,05,7.00
2014,12,06,16,06,7.00
2014,12,06,16,07,7.00
2014,12,06,16,08,7.00
2014,12,06,16,09,7.00
2014,12,06,16,10,7.00
2014,12,06,16,11,7.00
2014,12,06,16,12,6.90
2014,12,06,16,13,6.90
2014,12,06,16,14,6.90
2014,12,06,16,15,6.90
2014,12,06,16,16,6.90
2014,12,06,16,17,6.90
2014,12,06,16,18,6.90
2014,12,06,16,19,6.90
2014,12,06,16,20,6.90
2014,12,06,16,21,6.90
2014,12,06,16,22,6.90
2014,12,06,16,23,6.90
2014,12,06,16,24,6.90
2014,12,06,16,25,6.90
2014,12,06,16,26,6.90
2014,12,06,16,27,6.90
2014,12,06,16,28,6.90
2014,12,06,16,29,6.90
2014,12,06,16,30,6.90
2014,12,06,16,31,6.90
2014,12,06,16,32,6.90
2014,12,06,16,33,6.90
2014,12,06,16,34,6.90
2014,12,06,16,35,6.90
2014,12,06,16,36,6.90
2014,12,06,16,37,6.90
2014,12,06,16,38,6.90
2014,12,06,16,39,6.90
2014,12,06,16,40,6.90
2014,12,06,16,41,6.90
2014,12,06,16,42,6.90
2014,12,06,16,43,6.90
2014,12,06,16,44,6.90
2014,12,06,16,45,6.90
2014,12,06,16,46,6.90
2014,12,06,16,47,6.90
2014,12,06,16,48,6.90
2014,12,06,16,49,6.90
2014,12,06,16,50,6.90
2014,12,06,16,51,6.90
2014,12,06,16,52,6.90
2014,12,06,16,53,6.90
2014,12,06,16,54,6.90
2014,12,06,16,55,6.90
2014,12,06,16,56,6.90
2014,12,06,16,57,6.90
2014,12,06,16,58,6.90
2014,12,06,16,59,6.90
2014,12,06,17,00,6.90
2014,12,06,17,01,6.90
2014,12,06,17,02,6.90
2014,12,06,17,03,6.90
2014,12,06,17,04,6.90
2014,12,06,17,05,6.90
2014,12,06,17,06,6.90
2014,12,06,17,07,6.90
2014,12,06,17,08,6.90
2014,12,06,17,09,6.90
2014,12,06,17,10,6.90
2014,12,06,17,11,6.90
2014,12,06,17,12,6.90
2014,12,06,17,13,6.90
2014,12,06,17,14,6.80
2014,12,06,17,15,6.80
2014,12,06,17,16,6.80
2014,12,06,17,17,6.80
2014,12,06,17,18,6.80
2014,12,06,17,19,6.90
2014,12,06,17,20,6.90
2014,12,06,17,21,6.90
2014,12,06,17,22,6.90
2014,12,06,17,23,6.90
2014,12,06,17,24,6.90
2014,12,06,17,25,6.90
2014,12,06,17,26,6.90
2014,12,06,17,27,6.90
2014,12,06,17,28,6.90
2014,12,06,17,29,6.90
2014,12,06,17,30,6.90
2014,12,06,17,31,6.90
2014,12,06,17,32,6.90
2014,12,06,17,33,6.90
2014,12,06,17,34,6.90
2014,12,06,17,35,6.90
2014,12,06,17,36,6.90
2014,12,06,17,37,6.90
2014,12,06,17,38,6.90
2014,12,06,17,39,6.90
2014,12,06,17,40,6.90
2014,12,06,17,41,6.90
2014,12,06,17,42,6.90
2014,12,06,17,43,6.90
2014,12,06,17,44,6.90
2014,12,06,17,45,6.80
2014,12,06,17,46,6.80
2014,12,06,17,47,6.80
2014,12,06,17,48,6.80
2014,12,06,17,49,6.80
2014,12,06,17,50,6.80
2014,12,06,17,51,6.90
2014,12,06,17,52,6.80
2014,12,06,17,53,6.80
2014,12,06,17,54,6.90
2014,12,06,17,55,6.90
2014,12,06,17,56,6.90
2014,12,06,17,57,6.90
2014,12,06,17,58,6.90
2014,12,06,17,59,6.90
2014,12,06,18,00,6.90
2014,12,06,18,01,6.90
2014,12,06,18,02,6.90
2014,12,06,18,03,6.90
2014,12,06,18,04,6.90
2014,12,06,18,05,6.80
2014,12,06,18,06,6.90
2014,12,06,18,07,6.90
2014,12,06,18,08,6.80
2014,12,06,18,09,6.90
2014,12,06,18,10,6.80
2014,12,06,18,11,6.80
2014,12,06,18,12,6.80
2014,12,06,18,13,6.80
2014,12,06,18,14,6.80
2014,12,06,18,15,6.80
2014,12,06,18,16,6.90
2014,12,06,18,17,6.80
2014,12,06,18,18,6.80
2014,12,06,18,19,6.80
2014,12,06,18,20,6.80
2014,12,06,18,21,6.80
2014,12,06,18,22,6.80
2014,12,06,18,23,6.80
2014,12,06,18,24,6.80
2014,12,06,18,25,6.80
2014,12,06,18,26,6.80
2014,12,06,18,27,6.80
2014,12,06,18,28,6.80
2014,12,06,18,29,6.80
2014,12,06,18,30,6.80
2014,12,06,18,31,6.80
2014,12,06,18,32,6.80
2014,12,06,18,33,6.80
2014,12,06,18,34,6.80
2014,12,06,18,35,6.80
2014,12,06,18,36,6.80
2014,12,06,18,37,6.80
2014,12,06,18,38,6.80
2014,12,06,18,39,6.80
2014,12,06,18,40,6.80
2014,12,06,18,41,6.80
2014,12,06,18,42,6.80
2014,12,06,18,43,6.80
2014,12,06,18,44,6.80
2014,12,06,18,45,6.80
2014,12,06,18,46,6.90
2014,12,06,18,47,6.90
2014,12,06,18,48,6.90
2014,12,06,18,49,6.90
2014,12,06,18,50,6.90
2014,12,06,18,51,6.90
2014,12,06,18,52,6.90
2014,12,06,18,53,6.90
2014,12,06,18,54,6.90
2014,12,06,18,55,6.90
2014,12,06,18,56,6.90
2014,12,06,18,57,6.90
2014,12,06,18,58,6.90
2014,12,06,18,59,6.90
2014,12,06,19,00,6.90
2014,12,06,19,01,6.90
2014,12,06,19,02,6.90
2014,12,06,19,03,6.90
2014,12,06,19,04,6.90
2014,12,06,19,05,6.90